This is the latest recevied weather packets stored in our database for station/object KF5JED-13. If no packets are shown the sender has not sent any weather packets the latest 10 day(s).
| Time | Temp. | Humidity | Pressure | Rain* | Wind** | Luminosity | Snow |
|---|---|---|---|---|---|---|---|
| 1777742851 | 19.44° C | 31% | 1022.4 hPa | 0 mm | - | 839 W/m² | - |
| 1777742547 | 20° C | 30% | 1022.4 hPa | 0 mm | - | 824 W/m² | - |
| 1777742242 | 18.89° C | 31% | 1022.2 hPa | 0 mm | - | 818 W/m² | - |
| 1777741940 | 19.44° C | 33% | 1022.1 hPa | 0 mm | - | 807 W/m² | - |
| 1777741636 | 18.89° C | 32% | 1022.5 hPa | 0 mm | - | 799 W/m² | - |
| 1777741328 | 19.44° C | 33% | 1022.5 hPa | 0 mm | - | 789 W/m² | - |
| 1777741023 | 19.44° C | 34% | 1022.5 hPa | 0 mm | - | 779 W/m² | - |
| 1777740715 | 18.89° C | 35% | 1022.2 hPa | 0 mm | - | 769 W/m² | - |
| 1777740411 | 18.33° C | 39% | 1022.5 hPa | 0 mm | - | 759 W/m² | - |
| 1777740109 | 17.78° C | 41% | 1022.7 hPa | 0 mm | - | 749 W/m² | - |
| 1777739804 | 18.33° C | 38% | 1022.4 hPa | 0 mm | - | 738 W/m² | - |
| 1777739502 | 17.78° C | 41% | 1022.7 hPa | 0 mm | - | 728 W/m² | - |
| 1777739198 | 17.22° C | 42% | 1022.5 hPa | 0 mm | - | 717 W/m² | - |
| 1777738896 | 17.78° C | 42% | 1022.6 hPa | 0 mm | - | 708 W/m² | - |
| 1777738593 | 17.78° C | 43% | 1022.7 hPa | 0 mm | - | 696 W/m² | - |
| 1777738289 | 16.67° C | 45% | 1022.8 hPa | 0 mm | - | 688 W/m² | - |
| 1777737987 | 16.67° C | 45% | 1022.7 hPa | 0 mm | - | 678 W/m² | - |
| 1777737686 | 16.67° C | 44% | 1022.6 hPa | 0 mm | - | 666 W/m² | - |
| 1777737384 | 16.11° C | 48% | 1022.6 hPa | 0 mm | - | 654 W/m² | - |
| 1777737081 | 16.11° C | 49% | 1022.6 hPa | 0 mm | - | 640 W/m² | - |
| 1777736776 | 15.56° C | 49% | 1022.7 hPa | 0 mm | - | 629 W/m² | - |
| 1777736148 | 15.56° C | 51% | 1022.7 hPa | 0 mm | - | 600 W/m² | - |
| 1777735846 | 15.56° C | 51% | 1022.8 hPa | 0 mm | - | 585 W/m² | - |
| 1777735543 | 15° C | 53% | 1022.7 hPa | 0 mm | - | 572 W/m² | - |
| 1777735240 | 14.44° C | 54% | 1022.6 hPa | 0 mm | - | 554 W/m² | - |
* Rain latest hour (hover to see other rain measurements)
** Current wind speed in m/s (hover to see current wind gust speed)